TimePST,TemperatureF,Dew PointF,Humidity,Sea Level PressureIn,VisibilityMPH,Wind Direction,Wind SpeedMPH,Gust SpeedMPH,PrecipitationIn,Events,Conditions,WindDirDegrees,DateUTC
12:51 AM,48.9,17.1,28,30.19,10.0,ENE,4.6,-,N/A,,Clear,70,2013-01-04 08:51:00
1:51 AM,50.0,15.1,25,30.19,10.0,NNE,4.6,-,N/A,,Clear,30,2013-01-04 09:51:00
2:51 AM,50.0,15.1,25,30.19,10.0,NNE,5.8,-,N/A,,Clear,20,2013-01-04 10:51:00
3:51 AM,50.0,15.1,25,30.19,10.0,NNW,3.5,-,N/A,,Clear,340,2013-01-04 11:51:00
4:51 AM,46.9,18.0,32,30.19,10.0,NNE,4.6,-,N/A,,Clear,20,2013-01-04 12:51:00
5:51 AM,48.9,16.0,27,30.21,10.0,North,3.5,-,N/A,,Clear,10,2013-01-04 13:51:00
6:51 AM,46.9,16.0,29,30.22,10.0,NNE,3.5,-,N/A,,Clear,20,2013-01-04 14:51:00
7:51 AM,52.0,17.1,25,30.25,10.0,Calm,Calm,-,N/A,,Clear,0,2013-01-04 15:51:00
8:51 AM,57.9,18.0,21,30.27,10.0,NE,3.5,-,N/A,,Clear,40,2013-01-04 16:51:00
9:51 AM,62.1,17.1,18,30.28,10.0,Variable,4.6,-,N/A,,Clear,0,2013-01-04 17:51:00
10:51 AM,64.9,14.0,14,30.26,10.0,Variable,3.5,-,N/A,,Clear,0,2013-01-04 18:51:00
11:51 AM,64.0,10.9,13,30.23,10.0,SE,5.8,-,N/A,,Clear,130,2013-01-04 19:51:00
12:51 PM,66.0,12.0,12,30.20,10.0,Calm,Calm,-,N/A,,Clear,0,2013-01-04 20:51:00
1:51 PM,64.9,21.9,19,30.18,10.0,SSW,8.1,-,N/A,,Clear,210,2013-01-04 21:51:00
2:51 PM,63.0,28.0,27,30.18,10.0,SW,6.9,-,N/A,,Clear,230,2013-01-04 22:51:00
3:51 PM,60.1,35.1,39,30.19,10.0,SW,5.8,-,N/A,,Clear,220,2013-01-04 23:51:00
4:51 PM,57.9,42.1,56,30.19,10.0,West,3.5,-,N/A,,Clear,260,2013-01-05 00:51:00
5:51 PM,55.9,42.1,60,30.19,10.0,Calm,Calm,-,N/A,,Clear,0,2013-01-05 01:51:00
6:51 PM,52.0,30.9,45,30.21,10.0,Calm,Calm,-,N/A,,Clear,0,2013-01-05 02:51:00
7:51 PM,51.1,23.0,33,30.22,10.0,Calm,Calm,-,N/A,,Clear,0,2013-01-05 03:51:00
8:51 PM,50.0,26.1,39,30.23,10.0,Calm,Calm,-,N/A,,Clear,0,2013-01-05 04:51:00
9:51 PM,50.0,28.0,43,30.24,10.0,NNW,3.5,-,N/A,,Clear,340,2013-01-05 05:51:00
10:51 PM,48.9,27.0,43,30.25,10.0,Calm,Calm,-,N/A,,Clear,0,2013-01-05 06:51:00
11:51 PM,46.9,28.9,50,30.25,10.0,Calm,Calm,-,N/A,,Clear,0,2013-01-05 07:51:00